GEFSCGP_prec_meanprecacc_276.txt.gz
Total_Precipitation_Accumulation
0.01 0.02 0.03 0.03 0.05 0.09 0.16 0.19 0.27 0.32 0.23 0.26 0.42 0.61 0.82 0.97 1.13 1.20 1.35 1.33 1.54 1.79 1.95 2.34 2.70 3.16 3.61 4.13 4.89 5.55 6.07 6.12 5.96 5.63 5.28 5.03 4.54 4.20 3.93 3.68 3.48 3.24 2.95 2.85
0.01 0.03 0.03 0.04 0.05 0.06 0.12 0.20 0.32 0.32 0.23 0.27 0.45 0.69 0.95 1.01 0.97 1.00 1.21 1.32 1.40 1.60 1.90 2.27 2.78 3.07 3.45 3.98 4.55 4.97 5.01 4.76 4.67 4.73 4.64 4.38 4.38 4.18 4.07 3.86 3.69 3.22 3.03 2.94
0.04 0.05 0.03 0.04 0.06 0.06 0.11 0.19 0.25 0.28 0.29 0.35 0.53 0.91 1.14 1.13 0.97 0.90 0.94 1.06 1.18 1.32 1.53 1.87 2.44 2.76 2.96 3.46 3.79 3.83 3.75 3.63 3.75 3.86 3.82 3.87 4.11 4.11 4.09 3.98 3.72 3.38 3.20 3.08
0.02 0.03 0.04 0.05 0.07 0.07 0.12 0.12 0.14 0.17 0.28 0.55 0.64 1.12 1.43 1.48 1.32 1.05 0.95 1.07 1.13 1.22 1.28 1.59 1.92 2.16 2.44 2.71 2.83 2.81 2.90 2.98 3.08 3.17 3.22 3.10 3.12 3.34 3.57 3.75 3.82 3.74 3.46 3.20
0.03 0.04 0.05 0.06 0.07 0.09 0.09 0.08 0.11 0.16 0.25 0.44 0.57 0.87 1.37 1.68 1.71 1.31 1.05 0.97 0.92 1.06 1.31 1.52 1.64 1.80 1.90 1.96 2.07 2.12 2.41 2.78 2.96 3.07 3.20 3.11 2.79 2.77 2.82 2.95 3.16 3.16 3.12 2.92
0.04 0.05 0.06 0.05 0.06 0.08 0.09 0.14 0.22 0.33 0.50 0.78 0.72 0.79 1.25 1.53 1.60 1.26 1.03 0.94 0.83 0.83 1.01 1.24 1.53 1.63 1.59 1.55 1.69 1.90 2.20 2.65 2.91 3.00 2.97 2.94 2.86 2.84 2.74 2.73 2.82 2.69 2.65 2.54
0.16 0.13 0.10 0.06 0.08 0.09 0.11 0.19 0.57 0.98 1.32 1.35 0.83 0.79 1.04 1.08 1.02 1.03 0.88 0.81 0.85 0.79 0.78 0.79 0.99 1.25 1.23 1.18 1.36 1.61 1.81 2.17 2.42 2.54 2.53 2.49 2.60 2.71 2.58 2.44 2.40 2.33 2.19 2.08
0.19 0.23 0.14 0.09 0.09 0.09 0.10 0.15 0.42 0.73 0.93 1.06 0.91 1.21 1.33 1.00 0.83 0.74 0.63 0.60 0.68 0.63 0.58 0.57 0.65 0.82 1.04 1.04 1.10 1.21 1.47 1.74 1.96 2.03 2.15 2.30 2.45 2.56 2.49 2.65 2.44 2.28 1.99 1.83
0.08 0.11 0.10 0.09 0.09 0.11 0.12 0.12 0.17 0.28 0.44 0.75 1.05 1.26 1.21 1.02 0.95 0.76 0.58 0.51 0.52 0.51 0.50 0.50 0.57 0.77 0.81 0.80 0.85 0.95 1.21 1.43 1.59 1.73 1.93 2.05 2.04 2.05 2.22 2.39 2.35 2.18 2.09 1.88
0.05 0.05 0.08 0.09 0.10 0.12 0.12 0.12 0.15 0.22 0.39 0.61 0.94 1.32 1.40 1.29 1.12 0.94 0.82 0.61 0.50 0.51 0.52 0.49 0.50 0.59 0.63 0.63 0.74 0.98 1.20 1.24 1.45 1.76 1.98 1.92 1.94 1.90 2.08 2.10 2.08 2.08 2.01 1.98
0.04 0.05 0.07 0.10 0.13 0.16 0.16 0.14 0.13 0.17 0.22 0.39 0.81 1.08 1.02 1.06 0.99 0.93 0.81 0.68 0.62 0.56 0.55 0.54 0.54 0.55 0.67 0.58 0.66 0.84 0.98 1.15 1.45 1.75 2.00 2.04 1.95 1.98 2.04 1.91 1.87 1.97 1.99 1.97
0.05 0.05 0.07 0.13 0.18 0.18 0.17 0.17 0.17 0.23 0.23 0.26 0.44 0.74 0.62 0.71 0.81 0.84 0.68 0.61 0.59 0.49 0.47 0.44 0.43 0.50 0.48 0.47 0.58 0.88 1.21 1.56 1.74 2.02 2.34 2.42 2.19 1.99 1.86 1.70 1.68 1.82 1.99 2.03
0.05 0.06 0.14 0.32 0.35 0.25 0.18 0.16 0.16 0.18 0.18 0.22 0.43 0.70 0.58 0.63 0.73 0.73 0.68 0.61 0.60 0.61 0.49 0.47 0.42 0.51 0.50 0.48 0.51 0.65 0.82 1.18 1.52 1.87 2.23 2.23 1.97 1.75 1.70 1.68 1.69 1.80 1.95 1.96
0.06 0.05 0.10 0.26 0.34 0.33 0.27 0.21 0.18 0.16 0.18 0.22 0.31 0.58 0.61 0.65 0.59 0.61 0.59 0.58 0.65 0.75 0.61 0.55 0.52 0.51 0.52 0.52 0.51 0.62 0.72 0.81 1.02 1.47 1.80 1.80 1.63 1.55 1.55 1.58 1.61 1.60 1.66 1.71
0.07 0.07 0.05 0.06 0.15 0.23 0.25 0.22 0.19 0.16 0.14 0.26 0.30 0.41 0.51 0.68 0.65 0.64 0.63 0.57 0.55 0.66 0.62 0.58 0.57 0.63 0.65 0.71 0.71 0.72 0.76 0.79 0.97 1.44 1.66 1.62 1.54 1.55 1.47 1.45 1.52 1.58 1.65 1.70
0.10 0.10 0.10 0.10 0.14 0.16 0.17 0.20 0.18 0.13 0.12 0.11 0.17 0.33 0.38 0.62 0.77 0.75 0.75 0.71 0.66 0.65 0.61 0.58 0.51 0.61 0.71 0.77 0.80 0.81 0.89 0.94 1.07 1.38 1.60 1.56 1.49 1.46 1.36 1.39 1.47 1.61 1.72 1.90
0.16 0.15 0.15 0.16 0.19 0.18 0.25 0.21 0.17 0.15 0.15 0.15 0.24 0.38 0.38 0.46 0.63 0.75 0.76 0.72 0.65 0.67 0.59 0.58 0.61 0.70 0.89 0.84 0.85 0.93 0.89 0.96 1.13 1.43 1.60 1.62 1.54 1.51 1.45 1.41 1.56 1.73 1.91 2.09
0.29 0.27 0.25 0.21 0.25 0.37 0.29 0.21 0.22 0.25 0.28 0.29 0.33 0.37 0.40 0.52 0.59 0.73 0.90 0.75 0.61 0.65 0.68 0.74 0.71 0.78 0.87 0.86 0.89 0.96 0.99 1.03 1.18 1.40 1.61 1.67 1.62 1.65 1.73 1.75 1.80 1.99 2.19 2.34
0.34 0.39 0.36 0.31 0.34 0.41 0.38 0.30 0.35 0.39 0.45 0.47 0.49 0.43 0.48 0.55 0.65 0.80 0.76 0.74 0.77 0.78 0.79 0.84 0.91 0.95 1.02 1.02 0.98 1.01 1.16 1.20 1.28 1.36 1.56 1.68 1.73 1.81 1.84 1.91 2.15 2.32 2.47 2.49
0.37 0.46 0.49 0.44 0.52 0.59 0.59 0.44 0.38 0.46 0.79 0.62 0.64 0.63 0.56 0.60 0.85 0.97 0.81 0.73 0.73 0.83 0.94 0.95 1.01 1.06 1.07 1.10 1.16 1.20 1.31 1.45 1.57 1.66 1.75 1.96 2.15 2.34 2.42 2.48 2.53 2.59 2.69 2.65
0.66 0.62 0.61 0.66 0.77 0.72 0.57 0.51 0.46 0.87 1.20 0.88 0.85 0.83 0.73 0.85 0.95 0.94 0.81 0.75 0.71 0.74 0.89 0.97 1.01 1.11 1.18 1.18 1.31 1.51 1.60 1.71 1.87 2.02 2.08 2.29 2.62 2.82 2.82 2.87 2.76 2.65 2.67 2.70
0.89 0.84 0.84 0.89 1.12 1.19 0.66 0.62 0.97 1.22 1.02 1.03 1.05 1.02 0.95 0.92 0.98 0.99 0.95 0.80 0.73 0.74 0.81 0.93 1.02 1.10 1.27 1.50 1.68 1.94 2.04 2.03 2.15 2.31 2.46 2.71 2.98 2.86 2.79 2.96 2.84 2.80 2.87 2.84
0.95 1.00 1.08 1.16 1.38 1.17 0.81 0.93 1.11 1.10 1.07 1.11 1.08 1.04 0.93 0.89 1.03 0.98 0.91 0.87 0.74 0.72 0.79 0.88 0.98 1.16 1.36 1.64 2.02 2.25 2.31 2.43 2.46 2.53 2.68 2.79 2.87 2.99 3.12 3.19 3.07 2.96 2.93 2.84
1.15 1.03 1.21 1.44 1.50 1.25 1.09 1.08 1.05 1.08 1.11 1.07 0.99 0.94 0.95 0.90 0.92 0.92 0.85 0.82 0.78 0.77 0.85 0.90 1.01 1.21 1.50 1.77 2.11 2.25 2.31 2.35 2.37 2.40 2.41 2.50 2.64 2.77 2.89 3.13 3.17 3.04 2.88 2.76
1.37 1.26 1.48 1.86 1.93 1.77 1.63 1.39 1.22 1.18 1.14 1.18 1.14 1.05 1.01 0.97 0.92 0.84 0.81 0.80 0.80 0.80 0.90 1.00 1.12 1.24 1.39 1.64 1.88 1.97 2.11 2.18 2.33 2.37 2.29 2.24 2.28 2.42 2.56 2.67 2.75 2.70 2.66 2.47
1.53 1.57 1.82 2.17 1.91 1.86 1.98 1.71 1.46 1.39 1.37 1.40 1.40 1.36 1.23 1.14 1.07 0.98 0.90 0.82 0.79 0.78 0.88 1.00 1.13 1.29 1.43 1.60 1.78 1.87 2.01 2.10 2.20 2.21 2.12 2.11 2.10 2.18 2.24 2.25 2.19 2.03 1.93 1.76

GEFSCGP_prec_meanprecacc_282.txt.gz
Total_Precipitation_Accumulation
0.01 0.02 0.03 0.04 0.06 0.10 0.17 0.21 0.32 0.36 0.25 0.28 0.44 0.64 0.85 1.01 1.17 1.22 1.37 1.35 1.55 1.81 1.97 2.36 2.73 3.19 3.65 4.16 4.90 5.58 6.12 6.17 5.99 5.66 5.32 5.07 4.61 4.28 4.01 3.74 3.54 3.30 3.01 2.90
0.02 0.04 0.04 0.05 0.06 0.07 0.14 0.21 0.35 0.36 0.24 0.29 0.48 0.72 0.98 1.06 1.04 1.05 1.27 1.35 1.42 1.61 1.91 2.28 2.80 3.12 3.49 4.01 4.56 4.98 5.04 4.79 4.70 4.75 4.67 4.42 4.42 4.24 4.14 3.93 3.77 3.29 3.09 2.99
0.04 0.05 0.04 0.04 0.07 0.07 0.12 0.20 0.27 0.30 0.31 0.38 0.55 0.93 1.20 1.21 1.02 0.95 0.98 1.08 1.19 1.32 1.53 1.88 2.46 2.80 3.00 3.48 3.81 3.84 3.76 3.66 3.77 3.89 3.85 3.90 4.14 4.17 4.18 4.09 3.83 3.45 3.25 3.12
0.03 0.04 0.05 0.05 0.08 0.08 0.13 0.13 0.15 0.19 0.30 0.58 0.67 1.15 1.48 1.57 1.39 1.10 0.98 1.09 1.15 1.23 1.29 1.59 1.93 2.18 2.47 2.75 2.86 2.83 2.91 3.00 3.11 3.20 3.25 3.12 3.16 3.41 3.66 3.85 3.92 3.80 3.52 3.26
0.04 0.05 0.06 0.06 0.08 0.09 0.10 0.09 0.11 0.17 0.27 0.47 0.60 0.90 1.41 1.75 1.75 1.35 1.08 0.99 0.95 1.07 1.31 1.52 1.65 1.82 1.93 2.01 2.12 2.15 2.44 2.83 3.01 3.11 3.24 3.14 2.83 2.84 2.91 3.05 3.23 3.22 3.20 3.01
0.05 0.06 0.06 0.05 0.06 0.09 0.10 0.14 0.23 0.35 0.52 0.81 0.74 0.83 1.29 1.55 1.63 1.29 1.06 0.96 0.85 0.85 1.02 1.24 1.54 1.64 1.62 1.60 1.74 1.94 2.24 2.72 3.00 3.07 3.03 2.99 2.91 2.90 2.82 2.81 2.89 2.77 2.73 2.63
0.16 0.13 0.10 0.06 0.08 0.10 0.11 0.20 0.58 1.02 1.35 1.40 0.86 0.83 1.07 1.10 1.04 1.04 0.90 0.84 0.88 0.81 0.79 0.80 1.00 1.26 1.25 1.21 1.40 1.66 1.85 2.23 2.49 2.61 2.60 2.55 2.66 2.76 2.62 2.48 2.44 2.38 2.23 2.12
0.19 0.23 0.14 0.09 0.09 0.09 0.11 0.15 0.43 0.75 0.95 1.09 0.94 1.26 1.36 1.01 0.85 0.75 0.64 0.62 0.71 0.66 0.60 0.59 0.65 0.82 1.05 1.05 1.12 1.24 1.50 1.77 1.99 2.06 2.20 2.34 2.50 2.59 2.52 2.68 2.47 2.31 2.01 1.85
0.08 0.11 0.10 0.09 0.10 0.11 0.13 0.13 0.18 0.30 0.46 0.77 1.07 1.28 1.25 1.04 0.97 0.77 0.59 0.53 0.53 0.53 0.52 0.52 0.58 0.78 0.81 0.81 0.85 0.96 1.22 1.44 1.60 1.75 1.95 2.07 2.06 2.08 2.25 2.42 2.38 2.20 2.12 1.90
0.05 0.05 0.08 0.09 0.11 0.12 0.12 0.13 0.15 0.23 0.41 0.63 0.96 1.35 1.44 1.32 1.14 0.95 0.84 0.63 0.53 0.56 0.57 0.54 0.55 0.61 0.64 0.64 0.74 0.99 1.20 1.24 1.45 1.77 1.99 1.93 1.96 1.93 2.10 2.12 2.10 2.11 2.04 2.01
0.04 0.05 0.07 0.10 0.14 0.17 0.17 0.14 0.14 0.18 0.23 0.40 0.82 1.11 1.05 1.09 1.03 0.96 0.83 0.71 0.66 0.65 0.63 0.59 0.58 0.57 0.68 0.60 0.67 0.85 0.99 1.15 1.45 1.76 2.01 2.05 1.97 2.00 2.07 1.93 1.89 2.00 2.01 1.99
0.05 0.05 0.08 0.13 0.19 0.18 0.18 0.17 0.17 0.24 0.24 0.27 0.45 0.76 0.64 0.73 0.84 0.87 0.70 0.62 0.61 0.53 0.51 0.48 0.46 0.52 0.50 0.49 0.59 0.89 1.21 1.56 1.75 2.03 2.35 2.42 2.19 2.01 1.87 1.72 1.70 1.84 2.02 2.06
0.05 0.06 0.14 0.32 0.35 0.25 0.19 0.16 0.16 0.18 0.19 0.23 0.45 0.71 0.59 0.64 0.75 0.75 0.70 0.62 0.61 0.64 0.52 0.50 0.45 0.53 0.52 0.50 0.52 0.66 0.82 1.19 1.52 1.88 2.24 2.24 1.99 1.76 1.71 1.70 1.71 1.81 1.97 1.99
0.06 0.05 0.10 0.27 0.34 0.33 0.27 0.21 0.19 0.16 0.18 0.23 0.32 0.60 0.61 0.65 0.62 0.65 0.63 0.60 0.67 0.78 0.64 0.58 0.55 0.54 0.54 0.54 0.52 0.63 0.73 0.81 1.03 1.48 1.81 1.82 1.66 1.58 1.58 1.61 1.63 1.62 1.68 1.73
0.07 0.07 0.05 0.07 0.15 0.23 0.25 0.22 0.19 0.16 0.14 0.26 0.30 0.41 0.52 0.69 0.67 0.67 0.66 0.59 0.57 0.68 0.64 0.59 0.59 0.67 0.68 0.73 0.73 0.73 0.77 0.79 0.98 1.45 1.67 1.64 1.57 1.58 1.51 1.47 1.56 1.63 1.69 1.72
0.10 0.10 0.10 0.11 0.14 0.16 0.17 0.20 0.18 0.13 0.12 0.11 0.17 0.33 0.39 0.62 0.78 0.77 0.78 0.74 0.68 0.67 0.63 0.60 0.53 0.63 0.73 0.80 0.81 0.82 0.89 0.95 1.07 1.39 1.62 1.58 1.51 1.48 1.39 1.42 1.52 1.66 1.75 1.93
0.16 0.15 0.15 0.16 0.19 0.18 0.25 0.21 0.17 0.15 0.15 0.15 0.25 0.38 0.38 0.46 0.64 0.77 0.79 0.76 0.68 0.69 0.61 0.60 0.64 0.73 0.93 0.87 0.87 0.94 0.90 0.97 1.14 1.44 1.63 1.64 1.55 1.53 1.47 1.42 1.59 1.77 1.95 2.12
0.29 0.27 0.25 0.22 0.26 0.37 0.29 0.21 0.22 0.25 0.28 0.29 0.33 0.37 0.40 0.52 0.61 0.75 0.93 0.78 0.65 0.67 0.69 0.77 0.75 0.80 0.89 0.88 0.92 0.98 1.00 1.04 1.19 1.41 1.62 1.69 1.63 1.66 1.74 1.75 1.82 2.01 2.22 2.36
0.34 0.39 0.36 0.31 0.35 0.41 0.38 0.31 0.35 0.39 0.45 0.47 0.49 0.43 0.48 0.55 0.68 0.83 0.79 0.77 0.82 0.82 0.81 0.86 0.95 0.98 1.05 1.05 1.00 1.04 1.19 1.22 1.30 1.37 1.57 1.69 1.74 1.82 1.85 1.92 2.15 2.33 2.49 2.51
0.37 0.46 0.50 0.45 0.52 0.59 0.59 0.44 0.38 0.46 0.79 0.62 0.64 0.63 0.56 0.60 0.86 1.01 0.84 0.76 0.76 0.87 0.97 0.96 1.04 1.09 1.10 1.14 1.21 1.23 1.35 1.50 1.62 1.70 1.78 1.98 2.18 2.35 2.43 2.50 2.54 2.60 2.71 2.66
0.66 0.63 0.61 0.66 0.78 0.72 0.57 0.51 0.46 0.87 1.20 0.89 0.85 0.83 0.73 0.85 0.95 0.96 0.83 0.77 0.73 0.76 0.91 1.00 1.03 1.13 1.20 1.21 1.35 1.58 1.70 1.79 1.94 2.09 2.13 2.32 2.65 2.85 2.85 2.90 2.79 2.68 2.69 2.72
0.89 0.85 0.84 0.90 1.13 1.20 0.67 0.62 0.97 1.22 1.02 1.04 1.05 1.02 0.95 0.93 0.99 1.00 0.96 0.81 0.75 0.76 0.83 0.95 1.03 1.12 1.30 1.54 1.73 1.98 2.12 2.14 2.23 2.36 2.52 2.77 3.03 2.90 2.82 2.98 2.87 2.84 2.91 2.89
0.96 1.01 1.09 1.17 1.39 1.18 0.82 0.94 1.12 1.10 1.08 1.11 1.09 1.04 0.94 0.90 1.04 1.00 0.92 0.88 0.75 0.73 0.81 0.91 1.00 1.18 1.38 1.68 2.05 2.28 2.33 2.47 2.50 2.57 2.72 2.84 2.93 3.06 3.17 3.23 3.10 3.01 2.97 2.90
1.15 1.04 1.22 1.45 1.52 1.27 1.11 1.10 1.06 1.09 1.11 1.07 1.00 0.95 0.96 0.92 0.93 0.93 0.87 0.84 0.79 0.79 0.88 0.93 1.03 1.22 1.51 1.80 2.14 2.28 2.34 2.37 2.39 2.43 2.45 2.55 2.70 2.83 2.95 3.19 3.22 3.10 2.93 2.82
1.37 1.27 1.50 1.89 1.95 1.80 1.65 1.42 1.25 1.20 1.15 1.20 1.15 1.06 1.03 0.99 0.93 0.86 0.85 0.83 0.82 0.83 0.94 1.04 1.14 1.25 1.41 1.66 1.91 2.01 2.16 2.24 2.39 2.42 2.36 2.32 2.34 2.49 2.63 2.75 2.83 2.77 2.72 2.54
1.54 1.58 1.85 2.21 1.94 1.89 2.01 1.74 1.50 1.42 1.39 1.42 1.42 1.37 1.24 1.15 1.08 0.99 0.93 0.85 0.82 0.82 0.91 1.04 1.17 1.31 1.44 1.61 1.80 1.90 2.06 2.18 2.29 2.30 2.18 2.17 2.17 2.24 2.30 2.33 2.28 2.13 2.02 1.85

GEFSCGP_prec_meanprecacc_288.txt.gz
Total_Precipitation_Accumulation
0.01 0.02 0.03 0.04 0.07 0.11 0.17 0.21 0.32 0.37 0.25 0.29 0.45 0.65 0.87 1.03 1.17 1.23 1.37 1.36 1.56 1.82 1.98 2.37 2.74 3.21 3.67 4.17 4.92 5.60 6.17 6.25 6.09 5.72 5.34 5.10 4.64 4.32 4.05 3.79 3.59 3.33 3.04 2.94
0.02 0.04 0.04 0.05 0.06 0.07 0.14 0.22 0.35 0.36 0.25 0.30 0.49 0.73 1.00 1.08 1.05 1.06 1.27 1.35 1.42 1.62 1.92 2.29 2.82 3.13 3.51 4.03 4.58 5.00 5.06 4.83 4.75 4.80 4.69 4.44 4.45 4.28 4.18 3.99 3.81 3.32 3.11 3.01
0.04 0.06 0.04 0.05 0.07 0.08 0.12 0.20 0.27 0.30 0.31 0.39 0.56 0.94 1.22 1.23 1.03 0.95 0.99 1.09 1.20 1.33 1.54 1.89 2.47 2.80 3.01 3.51 3.83 3.86 3.79 3.69 3.82 3.93 3.88 3.93 4.18 4.22 4.24 4.13 3.86 3.49 3.28 3.14
0.03 0.04 0.05 0.06 0.09 0.08 0.13 0.13 0.16 0.19 0.30 0.59 0.67 1.15 1.49 1.59 1.40 1.11 0.98 1.09 1.16 1.24 1.29 1.60 1.94 2.19 2.48 2.76 2.88 2.85 2.93 3.02 3.15 3.27 3.29 3.16 3.20 3.46 3.71 3.89 3.94 3.83 3.54 3.28
0.04 0.05 0.06 0.07 0.08 0.10 0.10 0.09 0.12 0.18 0.29 0.48 0.61 0.91 1.41 1.76 1.77 1.36 1.09 1.00 0.96 1.08 1.32 1.53 1.66 1.83 1.95 2.02 2.13 2.16 2.45 2.84 3.04 3.18 3.30 3.18 2.86 2.89 2.97 3.10 3.26 3.24 3.23 3.04
0.05 0.06 0.06 0.06 0.06 0.09 0.10 0.16 0.25 0.37 0.53 0.82 0.74 0.83 1.29 1.55 1.65 1.30 1.07 0.97 0.86 0.86 1.03 1.26 1.55 1.65 1.64 1.61 1.75 1.95 2.26 2.74 3.03 3.13 3.09 3.04 2.95 2.96 2.90 2.87 2.93 2.80 2.77 2.66
0.16 0.14 0.10 0.06 0.08 0.10 0.11 0.21 0.60 1.03 1.36 1.41 0.86 0.83 1.07 1.10 1.04 1.04 0.90 0.84 0.89 0.82 0.81 0.81 1.01 1.28 1.26 1.23 1.41 1.67 1.86 2.26 2.55 2.69 2.67 2.60 2.72 2.83 2.70 2.54 2.48 2.40 2.26 2.15
0.19 0.23 0.14 0.10 0.09 0.10 0.11 0.16 0.43 0.76 0.96 1.09 0.94 1.27 1.36 1.02 0.85 0.76 0.64 0.63 0.72 0.67 0.61 0.59 0.66 0.84 1.06 1.07 1.15 1.28 1.52 1.80 2.06 2.16 2.29 2.42 2.58 2.68 2.60 2.74 2.50 2.34 2.04 1.87
0.08 0.11 0.10 0.10 0.10 0.12 0.13 0.13 0.19 0.31 0.46 0.77 1.08 1.29 1.25 1.04 0.97 0.78 0.60 0.54 0.54 0.53 0.52 0.52 0.59 0.79 0.85 0.87 0.93 1.05 1.27 1.47 1.67 1.85 2.06 2.16 2.15 2.15 2.32 2.47 2.43 2.25 2.17 1.93
0.05 0.06 0.08 0.10 0.11 0.13 0.13 0.13 0.16 0.24 0.41 0.63 0.96 1.35 1.44 1.33 1.14 0.96 0.84 0.64 0.53 0.56 0.58 0.54 0.55 0.64 0.69 0.73 0.84 1.05 1.23 1.26 1.49 1.84 2.07 2.01 2.04 1.99 2.15 2.16 2.14 2.15 2.08 2.03
0.04 0.05 0.07 0.11 0.14 0.17 0.17 0.15 0.14 0.19 0.24 0.40 0.82 1.12 1.06 1.10 1.03 0.96 0.83 0.71 0.67 0.65 0.63 0.60 0.59 0.59 0.70 0.63 0.71 0.88 1.01 1.17 1.48 1.81 2.08 2.13 2.04 2.05 2.10 1.96 1.93 2.03 2.04 2.01
0.05 0.05 0.08 0.13 0.19 0.18 0.18 0.17 0.18 0.24 0.24 0.27 0.45 0.76 0.64 0.73 0.85 0.87 0.70 0.62 0.61 0.53 0.51 0.48 0.47 0.53 0.51 0.50 0.60 0.91 1.23 1.58 1.77 2.06 2.40 2.48 2.24 2.04 1.90 1.75 1.74 1.88 2.04 2.09
0.05 0.06 0.14 0.32 0.35 0.25 0.19 0.16 0.17 0.18 0.19 0.23 0.45 0.71 0.59 0.64 0.75 0.75 0.70 0.63 0.62 0.64 0.53 0.51 0.46 0.54 0.53 0.51 0.53 0.67 0.84 1.20 1.55 1.92 2.27 2.28 2.02 1.79 1.74 1.73 1.75 1.85 2.02 2.05
0.06 0.05 0.10 0.27 0.34 0.33 0.27 0.21 0.19 0.16 0.18 0.23 0.32 0.60 0.62 0.65 0.62 0.65 0.63 0.60 0.68 0.78 0.65 0.59 0.56 0.55 0.55 0.55 0.53 0.64 0.75 0.84 1.06 1.52 1.87 1.84 1.67 1.61 1.62 1.64 1.67 1.68 1.76 1.80
0.07 0.07 0.05 0.07 0.16 0.23 0.25 0.22 0.19 0.16 0.15 0.26 0.30 0.41 0.52 0.69 0.67 0.68 0.66 0.60 0.58 0.69 0.65 0.61 0.60 0.67 0.69 0.73 0.74 0.75 0.79 0.82 1.01 1.48 1.72 1.67 1.59 1.61 1.54 1.51 1.62 1.69 1.74 1.76
0.10 0.10 0.10 0.11 0.14 0.16 0.17 0.20 0.18 0.13 0.12 0.11 0.17 0.33 0.39 0.62 0.78 0.77 0.78 0.74 0.69 0.68 0.64 0.62 0.54 0.64 0.74 0.81 0.83 0.84 0.91 0.97 1.10 1.42 1.65 1.62 1.54 1.51 1.41 1.47 1.58 1.70 1.80 1.97
0.16 0.15 0.15 0.16 0.19 0.18 0.25 0.21 0.17 0.15 0.15 0.15 0.25 0.38 0.38 0.46 0.64 0.77 0.79 0.76 0.68 0.69 0.62 0.62 0.66 0.74 0.93 0.87 0.88 0.96 0.91 0.98 1.15 1.46 1.67 1.68 1.60 1.55 1.49 1.45 1.63 1.79 1.98 2.17
0.29 0.27 0.25 0.22 0.26 0.37 0.29 0.21 0.22 0.25 0.28 0.29 0.33 0.37 0.40 0.52 0.61 0.75 0.93 0.79 0.65 0.68 0.70 0.77 0.75 0.81 0.89 0.88 0.93 0.99 1.01 1.05 1.20 1.43 1.66 1.73 1.67 1.69 1.77 1.78 1.84 2.02 2.24 2.39
0.34 0.39 0.36 0.31 0.35 0.41 0.38 0.31 0.35 0.39 0.45 0.47 0.49 0.43 0.49 0.55 0.68 0.84 0.79 0.77 0.82 0.82 0.81 0.86 0.95 0.99 1.06 1.06 1.01 1.04 1.19 1.23 1.31 1.39 1.61 1.74 1.79 1.87 1.89 1.95 2.17 2.35 2.50 2.53
0.37 0.46 0.50 0.45 0.52 0.59 0.59 0.44 0.38 0.46 0.79 0.62 0.64 0.63 0.56 0.60 0.87 1.01 0.85 0.77 0.77 0.88 0.97 0.97 1.04 1.10 1.11 1.15 1.21 1.23 1.35 1.51 1.64 1.72 1.81 2.03 2.24 2.41 2.47 2.53 2.58 2.63 2.73 2.68
0.66 0.63 0.61 0.66 0.78 0.72 0.57 0.51 0.46 0.87 1.20 0.89 0.85 0.83 0.73 0.85 0.96 0.97 0.84 0.78 0.75 0.78 0.92 1.01 1.04 1.14 1.21 1.22 1.36 1.59 1.71 1.80 1.96 2.12 2.18 2.38 2.71 2.90 2.89 2.94 2.83 2.72 2.72 2.75
0.89 0.85 0.84 0.90 1.13 1.20 0.67 0.62 0.97 1.22 1.02 1.04 1.06 1.03 0.96 0.94 0.99 1.01 0.98 0.83 0.78 0.79 0.86 0.97 1.05 1.13 1.31 1.56 1.75 2.00 2.14 2.16 2.24 2.39 2.58 2.83 3.08 2.96 2.87 3.02 2.92 2.90 2.96 2.95
0.96 1.01 1.09 1.17 1.39 1.18 0.82 0.94 1.12 1.11 1.08 1.12 1.09 1.05 0.95 0.91 1.06 1.02 0.94 0.91 0.79 0.78 0.85 0.94 1.04 1.21 1.41 1.70 2.07 2.30 2.35 2.48 2.52 2.59 2.75 2.88 2.97 3.09 3.22 3.27 3.14 3.05 3.02 2.96
1.15 1.04 1.23 1.45 1.52 1.27 1.12 1.10 1.06 1.09 1.12 1.08 1.01 0.96 0.97 0.94 0.95 0.96 0.90 0.88 0.84 0.85 0.93 0.98 1.09 1.28 1.56 1.85 2.18 2.32 2.37 2.39 2.41 2.46 2.48 2.59 2.73 2.86 2.98 3.23 3.26 3.14 2.97 2.86
1.37 1.27 1.51 1.89 1.96 1.80 1.65 1.42 1.25 1.21 1.16 1.21 1.17 1.07 1.04 1.00 0.95 0.89 0.89 0.88 0.88 0.89 1.02 1.12 1.22 1.32 1.46 1.71 1.97 2.07 2.22 2.29 2.44 2.48 2.43 2.38 2.41 2.55 2.69 2.80 2.89 2.83 2.77 2.58
1.54 1.59 1.85 2.22 1.95 1.90 2.02 1.75 1.51 1.43 1.42 1.45 1.43 1.39 1.26 1.17 1.11 1.02 0.97 0.90 0.88 0.88 0.99 1.11 1.24 1.40 1.54 1.70 1.89 1.99 2.15 2.27 2.38 2.39 2.27 2.26 2.25 2.32 2.37 2.38 2.33 2.20 2.10 1.93

GEFSCGP_prec_meanprecacc_294.txt.gz
Total_Precipitation_Accumulation
0.01 0.02 0.03 0.05 0.07 0.11 0.17 0.21 0.33 0.37 0.25 0.29 0.46 0.66 0.88 1.03 1.18 1.23 1.37 1.36 1.56 1.82 1.98 2.38 2.75 3.22 3.67 4.18 4.93 5.64 6.22 6.30 6.15 5.76 5.38 5.14 4.68 4.37 4.11 3.85 3.66 3.42 3.14 3.01
0.02 0.04 0.04 0.05 0.06 0.07 0.14 0.22 0.35 0.36 0.25 0.30 0.49 0.74 1.02 1.09 1.05 1.06 1.27 1.35 1.42 1.62 1.92 2.29 2.84 3.15 3.52 4.04 4.59 5.03 5.12 4.89 4.81 4.84 4.73 4.48 4.48 4.31 4.23 4.05 3.89 3.40 3.19 3.07
0.04 0.06 0.04 0.05 0.07 0.08 0.12 0.20 0.27 0.30 0.31 0.39 0.56 0.95 1.23 1.23 1.04 0.95 0.99 1.09 1.20 1.33 1.54 1.90 2.49 2.82 3.02 3.51 3.84 3.87 3.82 3.76 3.91 3.97 3.91 3.95 4.21 4.27 4.30 4.20 3.97 3.57 3.35 3.20
0.03 0.04 0.05 0.06 0.09 0.08 0.13 0.13 0.16 0.19 0.30 0.59 0.67 1.16 1.49 1.59 1.40 1.11 0.99 1.10 1.16 1.24 1.30 1.61 1.95 2.21 2.49 2.77 2.88 2.86 2.95 3.08 3.22 3.32 3.34 3.19 3.23 3.51 3.75 3.95 4.03 3.90 3.60 3.34
0.04 0.05 0.06 0.07 0.08 0.10 0.10 0.09 0.12 0.19 0.29 0.48 0.61 0.91 1.42 1.76 1.77 1.36 1.09 1.00 0.96 1.09 1.33 1.54 1.66 1.85 1.96 2.03 2.14 2.17 2.46 2.88 3.08 3.22 3.35 3.24 2.91 2.94 3.01 3.15 3.32 3.31 3.28 3.11
0.05 0.06 0.06 0.06 0.07 0.09 0.10 0.16 0.25 0.37 0.53 0.82 0.75 0.83 1.29 1.55 1.65 1.30 1.07 0.97 0.86 0.86 1.04 1.26 1.56 1.67 1.65 1.62 1.76 1.95 2.26 2.77 3.07 3.19 3.14 3.12 3.04 3.03 2.95 2.92 2.99 2.86 2.84 2.77
0.16 0.14 0.10 0.07 0.08 0.10 0.11 0.21 0.60 1.03 1.36 1.41 0.86 0.83 1.07 1.10 1.04 1.04 0.90 0.85 0.89 0.82 0.81 0.82 1.02 1.29 1.27 1.24 1.41 1.67 1.87 2.28 2.59 2.77 2.72 2.67 2.80 2.90 2.75 2.59 2.53 2.46 2.33 2.26
0.19 0.23 0.14 0.10 0.09 0.10 0.11 0.16 0.44 0.77 0.96 1.10 0.94 1.27 1.37 1.02 0.85 0.76 0.64 0.63 0.72 0.67 0.61 0.60 0.66 0.84 1.06 1.09 1.17 1.29 1.53 1.82 2.08 2.25 2.37 2.48 2.65 2.75 2.66 2.80 2.54 2.39 2.10 1.94
0.08 0.11 0.10 0.10 0.10 0.12 0.13 0.13 0.19 0.31 0.46 0.78 1.08 1.29 1.25 1.05 0.97 0.78 0.60 0.54 0.55 0.54 0.53 0.53 0.59 0.79 0.86 0.88 0.95 1.07 1.28 1.48 1.69 1.94 2.15 2.23 2.23 2.23 2.38 2.53 2.47 2.31 2.22 1.98
0.05 0.06 0.08 0.10 0.11 0.13 0.13 0.14 0.16 0.24 0.42 0.63 0.97 1.36 1.44 1.33 1.15 0.96 0.84 0.64 0.53 0.56 0.58 0.55 0.56 0.64 0.70 0.75 0.86 1.07 1.26 1.27 1.50 1.88 2.15 2.10 2.14 2.07 2.23 2.23 2.19 2.21 2.13 2.08
0.04 0.05 0.07 0.11 0.14 0.17 0.17 0.15 0.15 0.20 0.24 0.40 0.82 1.12 1.06 1.10 1.03 0.96 0.83 0.71 0.67 0.65 0.63 0.60 0.60 0.60 0.71 0.64 0.72 0.90 1.04 1.19 1.48 1.81 2.11 2.21 2.13 2.12 2.18 2.03 1.98 2.08 2.08 2.06
0.05 0.05 0.08 0.13 0.19 0.19 0.18 0.17 0.18 0.24 0.24 0.27 0.45 0.76 0.64 0.73 0.85 0.87 0.70 0.62 0.61 0.53 0.51 0.48 0.47 0.53 0.51 0.50 0.61 0.93 1.26 1.60 1.78 2.07 2.42 2.54 2.31 2.10 1.97 1.79 1.77 1.91 2.08 2.13
0.05 0.06 0.14 0.32 0.35 0.25 0.19 0.16 0.17 0.18 0.19 0.23 0.45 0.71 0.59 0.64 0.75 0.75 0.70 0.63 0.62 0.64 0.53 0.51 0.46 0.54 0.53 0.51 0.53 0.68 0.86 1.22 1.57 1.93 2.30 2.34 2.08 1.84 1.79 1.77 1.78 1.89 2.06 2.08
0.06 0.05 0.10 0.27 0.34 0.33 0.27 0.21 0.19 0.16 0.18 0.23 0.32 0.60 0.62 0.65 0.62 0.65 0.63 0.60 0.69 0.79 0.66 0.59 0.56 0.55 0.55 0.55 0.53 0.64 0.76 0.84 1.07 1.54 1.88 1.86 1.70 1.64 1.65 1.67 1.70 1.70 1.78 1.83
0.07 0.07 0.05 0.07 0.16 0.23 0.25 0.23 0.19 0.16 0.15 0.26 0.30 0.41 0.52 0.69 0.67 0.68 0.66 0.60 0.58 0.69 0.66 0.61 0.60 0.68 0.70 0.74 0.74 0.75 0.79 0.83 1.02 1.50 1.74 1.69 1.61 1.63 1.57 1.53 1.64 1.71 1.76 1.79
0.10 0.10 0.10 0.11 0.14 0.16 0.17 0.20 0.18 0.13 0.12 0.11 0.17 0.33 0.39 0.62 0.78 0.77 0.78 0.74 0.69 0.69 0.65 0.62 0.55 0.64 0.75 0.82 0.83 0.84 0.92 0.98 1.11 1.43 1.67 1.64 1.56 1.53 1.43 1.48 1.60 1.72 1.81 1.99
0.16 0.15 0.15 0.16 0.19 0.18 0.25 0.21 0.17 0.15 0.15 0.15 0.25 0.38 0.38 0.46 0.64 0.77 0.79 0.76 0.68 0.70 0.62 0.62 0.66 0.74 0.94 0.89 0.90 0.96 0.91 0.98 1.16 1.47 1.68 1.70 1.62 1.58 1.52 1.48 1.65 1.81 2.01 2.20
0.29 0.27 0.25 0.22 0.26 0.37 0.29 0.21 0.22 0.25 0.28 0.29 0.33 0.37 0.40 0.52 0.61 0.75 0.93 0.79 0.65 0.68 0.70 0.78 0.76 0.81 0.91 0.90 0.94 1.00 1.02 1.06 1.20 1.44 1.67 1.75 1.70 1.72 1.80 1.82 1.88 2.05 2.28 2.44
0.34 0.39 0.36 0.31 0.35 0.41 0.38 0.31 0.35 0.39 0.45 0.47 0.49 0.43 0.49 0.55 0.68 0.84 0.79 0.77 0.82 0.83 0.82 0.87 0.96 1.00 1.08 1.07 1.02 1.05 1.20 1.24 1.32 1.40 1.63 1.77 1.82 1.90 1.92 1.99 2.24 2.41 2.56 2.59
0.37 0.46 0.50 0.45 0.52 0.59 0.59 0.44 0.38 0.46 0.79 0.62 0.64 0.63 0.56 0.60 0.87 1.01 0.85 0.77 0.77 0.88 0.98 0.98 1.05 1.10 1.12 1.16 1.22 1.25 1.36 1.53 1.66 1.74 1.83 2.06 2.27 2.44 2.51 2.58 2.63 2.69 2.77 2.72
0.66 0.63 0.61 0.66 0.78 0.72 0.57 0.51 0.46 0.87 1.20 0.89 0.85 0.83 0.73 0.85 0.96 0.97 0.84 0.79 0.75 0.79 0.93 1.02 1.05 1.14 1.22 1.23 1.37 1.62 1.73 1.83 2.00 2.16 2.22 2.43 2.76 2.95 2.93 2.99 2.88 2.77 2.77 2.78
0.89 0.85 0.84 0.90 1.13 1.20 0.67 0.62 0.97 1.22 1.02 1.04 1.06 1.03 0.96 0.94 0.99 1.01 0.99 0.84 0.79 0.80 0.87 0.99 1.07 1.15 1.33 1.58 1.77 2.04 2.18 2.21 2.30 2.45 2.64 2.89 3.14 3.00 2.92 3.07 2.96 2.94 3.00 2.98
0.96 1.01 1.09 1.17 1.39 1.18 0.83 0.95 1.12 1.11 1.08 1.12 1.09 1.05 0.95 0.91 1.06 1.02 0.95 0.91 0.80 0.80 0.86 0.96 1.05 1.22 1.43 1.73 2.11 2.36 2.42 2.54 2.57 2.64 2.80 2.92 3.00 3.13 3.26 3.31 3.17 3.07 3.05 2.99
1.16 1.04 1.23 1.45 1.52 1.27 1.12 1.11 1.07 1.10 1.12 1.08 1.01 0.96 0.97 0.95 0.96 0.96 0.90 0.88 0.84 0.86 0.95 0.99 1.10 1.30 1.59 1.89 2.24 2.39 2.43 2.45 2.46 2.50 2.52 2.62 2.77 2.90 3.02 3.26 3.29 3.16 2.99 2.88
1.38 1.28 1.51 1.90 1.96 1.80 1.66 1.42 1.25 1.21 1.17 1.21 1.17 1.08 1.04 1.01 0.96 0.90 0.89 0.89 0.89 0.90 1.03 1.13 1.24 1.34 1.49 1.75 2.02 2.13 2.28 2.36 2.50 2.54 2.47 2.42 2.44 2.58 2.72 2.83 2.92 2.86 2.81 2.63
1.55 1.59 1.86 2.23 1.95 1.90 2.03 1.76 1.51 1.43 1.43 1.46 1.44 1.39 1.27 1.18 1.11 1.03 0.97 0.91 0.89 0.89 1.00 1.13 1.27 1.43 1.58 1.75 1.93 2.02 2.19 2.32 2.43 2.44 2.33 2.31 2.29 2.36 2.41 2.41 2.37 2.24 2.15 1.99

GEFSCGP_prec_meanprecacc_300.txt.gz
Total_Precipitation_Accumulation
0.01 0.02 0.04 0.05 0.07 0.12 0.17 0.22 0.33 0.38 0.26 0.29 0.46 0.66 0.88 1.03 1.18 1.23 1.38 1.36 1.56 1.82 1.98 2.38 2.76 3.23 3.68 4.19 4.95 5.65 6.25 6.33 6.20 5.83 5.45 5.21 4.76 4.45 4.17 3.91 3.71 3.47 3.18 3.06
0.02 0.04 0.04 0.05 0.06 0.08 0.14 0.22 0.36 0.38 0.26 0.30 0.50 0.74 1.02 1.09 1.06 1.06 1.28 1.35 1.42 1.62 1.92 2.30 2.84 3.16 3.52 4.05 4.62 5.06 5.15 4.92 4.85 4.89 4.79 4.54 4.55 4.37 4.30 4.12 3.97 3.44 3.23 3.11
0.05 0.06 0.04 0.05 0.07 0.08 0.13 0.21 0.27 0.31 0.32 0.39 0.57 0.96 1.24 1.24 1.04 0.96 0.99 1.09 1.20 1.33 1.54 1.90 2.49 2.83 3.03 3.53 3.87 3.91 3.85 3.80 3.94 4.02 3.96 4.00 4.26 4.33 4.39 4.32 4.08 3.65 3.42 3.25
0.03 0.04 0.05 0.06 0.09 0.09 0.14 0.14 0.16 0.20 0.31 0.60 0.69 1.19 1.51 1.59 1.40 1.11 0.99 1.10 1.16 1.25 1.30 1.61 1.95 2.21 2.50 2.77 2.89 2.88 2.98 3.12 3.26 3.36 3.38 3.25 3.28 3.56 3.82 4.04 4.12 3.98 3.70 3.44
0.04 0.05 0.06 0.07 0.08 0.10 0.10 0.10 0.13 0.19 0.30 0.49 0.62 0.93 1.44 1.77 1.78 1.37 1.09 1.00 0.96 1.09 1.33 1.54 1.67 1.86 1.97 2.03 2.14 2.18 2.48 2.91 3.11 3.24 3.39 3.29 2.96 2.97 3.05 3.21 3.40 3.39 3.38 3.19
0.05 0.06 0.06 0.06 0.07 0.09 0.10 0.16 0.25 0.38 0.57 0.85 0.76 0.85 1.32 1.57 1.65 1.30 1.07 0.97 0.86 0.86 1.04 1.27 1.56 1.68 1.66 1.63 1.76 1.96 2.28 2.79 3.09 3.23 3.18 3.16 3.08 3.07 2.99 2.98 3.07 2.96 2.92 2.85
0.16 0.14 0.10 0.07 0.08 0.10 0.12 0.22 0.62 1.07 1.40 1.44 0.87 0.84 1.08 1.11 1.05 1.04 0.90 0.85 0.89 0.82 0.81 0.82 1.03 1.30 1.28 1.25 1.43 1.69 1.89 2.30 2.61 2.82 2.77 2.71 2.84 2.93 2.78 2.63 2.59 2.55 2.40 2.33
0.19 0.23 0.14 0.10 0.09 0.10 0.13 0.18 0.47 0.81 1.00 1.11 0.95 1.29 1.37 1.02 0.85 0.76 0.64 0.63 0.72 0.67 0.62 0.60 0.67 0.85 1.09 1.12 1.21 1.33 1.57 1.85 2.11 2.28 2.41 2.51 2.69 2.77 2.68 2.83 2.58 2.45 2.14 2.00
0.08 0.11 0.10 0.10 0.10 0.12 0.15 0.15 0.22 0.35 0.52 0.82 1.11 1.32 1.27 1.05 0.99 0.78 0.60 0.54 0.55 0.54 0.53 0.53 0.60 0.80 0.87 0.90 1.00 1.15 1.36 1.53 1.75 1.99 2.20 2.27 2.26 2.27 2.41 2.56 2.50 2.34 2.26 2.02
0.05 0.06 0.08 0.10 0.11 0.13 0.13 0.14 0.17 0.27 0.48 0.70 1.01 1.40 1.47 1.33 1.15 0.96 0.84 0.64 0.54 0.56 0.58 0.55 0.56 0.65 0.72 0.77 0.88 1.09 1.29 1.31 1.54 1.93 2.20 2.15 2.19 2.13 2.28 2.26 2.22 2.25 2.17 2.12
0.04 0.05 0.07 0.11 0.14 0.17 0.18 0.15 0.15 0.20 0.25 0.42 0.87 1.16 1.07 1.10 1.04 0.96 0.83 0.71 0.67 0.65 0.63 0.61 0.60 0.60 0.72 0.65 0.73 0.91 1.05 1.20 1.50 1.84 2.16 2.29 2.21 2.20 2.26 2.09 2.03 2.13 2.13 2.12
0.05 0.05 0.08 0.13 0.19 0.19 0.18 0.18 0.18 0.24 0.24 0.28 0.48 0.80 0.66 0.74 0.85 0.87 0.70 0.63 0.61 0.53 0.51 0.48 0.47 0.54 0.52 0.52 0.61 0.93 1.27 1.61 1.79 2.10 2.46 2.63 2.43 2.21 2.07 1.89 1.86 1.97 2.15 2.19
0.05 0.06 0.14 0.32 0.35 0.25 0.19 0.16 0.17 0.19 0.19 0.23 0.47 0.74 0.61 0.66 0.79 0.77 0.70 0.63 0.62 0.64 0.53 0.51 0.47 0.55 0.55 0.53 0.55 0.69 0.87 1.26 1.59 1.95 2.34 2.40 2.16 1.94 1.89 1.86 1.87 1.97 2.14 2.16
0.06 0.06 0.10 0.28 0.34 0.34 0.28 0.21 0.19 0.16 0.18 0.23 0.33 0.61 0.63 0.67 0.64 0.67 0.63 0.60 0.69 0.79 0.66 0.59 0.57 0.56 0.56 0.56 0.55 0.65 0.76 0.86 1.09 1.56 1.90 1.90 1.75 1.70 1.74 1.75 1.78 1.79 1.88 1.93
0.07 0.07 0.05 0.07 0.16 0.23 0.25 0.23 0.20 0.16 0.15 0.27 0.32 0.42 0.52 0.69 0.68 0.69 0.66 0.60 0.58 0.69 0.66 0.61 0.61 0.68 0.70 0.75 0.77 0.77 0.80 0.83 1.03 1.52 1.75 1.71 1.64 1.67 1.64 1.61 1.71 1.77 1.83 1.87
0.10 0.10 0.10 0.11 0.14 0.16 0.17 0.20 0.19 0.14 0.12 0.12 0.18 0.35 0.40 0.64 0.78 0.77 0.78 0.75 0.69 0.69 0.65 0.62 0.55 0.65 0.76 0.83 0.86 0.87 0.93 0.99 1.12 1.45 1.72 1.68 1.60 1.58 1.50 1.56 1.67 1.78 1.87 2.05
0.16 0.15 0.15 0.16 0.19 0.18 0.25 0.21 0.17 0.16 0.15 0.16 0.25 0.39 0.41 0.49 0.65 0.77 0.80 0.76 0.68 0.70 0.63 0.63 0.67 0.75 0.95 0.89 0.92 1.00 0.93 0.99 1.17 1.49 1.72 1.76 1.67 1.63 1.59 1.54 1.70 1.88 2.08 2.26
0.29 0.27 0.25 0.22 0.26 0.37 0.29 0.21 0.22 0.25 0.29 0.30 0.33 0.38 0.41 0.54 0.63 0.76 0.93 0.79 0.65 0.68 0.71 0.79 0.77 0.82 0.91 0.91 0.96 1.03 1.04 1.07 1.22 1.45 1.69 1.79 1.77 1.81 1.88 1.90 1.95 2.13 2.36 2.51
0.34 0.39 0.36 0.31 0.35 0.42 0.38 0.31 0.35 0.39 0.45 0.47 0.50 0.44 0.49 0.56 0.69 0.85 0.79 0.77 0.82 0.83 0.82 0.88 0.97 1.01 1.09 1.09 1.04 1.10 1.25 1.28 1.35 1.42 1.65 1.80 1.87 1.97 2.00 2.07 2.31 2.49 2.65 2.67
0.37 0.46 0.50 0.45 0.53 0.61 0.60 0.44 0.38 0.47 0.79 0.62 0.64 0.63 0.57 0.60 0.87 1.02 0.85 0.77 0.77 0.88 0.98 0.98 1.05 1.11 1.14 1.18 1.24 1.29 1.42 1.58 1.70 1.77 1.86 2.09 2.30 2.48 2.56 2.63 2.71 2.77 2.87 2.80
0.66 0.63 0.61 0.66 0.79 0.73 0.58 0.51 0.46 0.87 1.20 0.89 0.85 0.83 0.74 0.85 0.97 0.97 0.84 0.79 0.75 0.79 0.94 1.02 1.06 1.16 1.24 1.25 1.40 1.66 1.79 1.88 2.03 2.20 2.25 2.45 2.79 2.98 2.97 3.04 2.95 2.87 2.85 2.87
0.89 0.85 0.85 0.90 1.14 1.21 0.67 0.62 0.97 1.22 1.02 1.04 1.06 1.03 0.96 0.94 1.00 1.02 0.99 0.84 0.79 0.80 0.88 0.99 1.08 1.16 1.35 1.60 1.80 2.08 2.24 2.26 2.34 2.49 2.67 2.92 3.18 3.05 2.97 3.14 3.03 3.02 3.08 3.06
0.97 1.02 1.09 1.17 1.39 1.18 0.83 0.95 1.12 1.11 1.08 1.12 1.10 1.05 0.95 0.91 1.07 1.02 0.95 0.92 0.80 0.80 0.87 0.96 1.06 1.24 1.45 1.75 2.14 2.39 2.46 2.60 2.63 2.70 2.86 2.98 3.06 3.19 3.32 3.38 3.25 3.16 3.14 3.08
1.19 1.07 1.25 1.47 1.53 1.28 1.12 1.11 1.07 1.10 1.12 1.08 1.01 0.96 0.97 0.95 0.96 0.96 0.90 0.89 0.85 0.86 0.95 1.00 1.11 1.32 1.63 1.94 2.28 2.43 2.49 2.52 2.53 2.58 2.61 2.73 2.90 3.04 3.15 3.37 3.37 3.23 3.05 2.94
1.40 1.31 1.57 1.96 2.00 1.81 1.66 1.43 1.26 1.22 1.17 1.21 1.17 1.08 1.04 1.01 0.96 0.90 0.90 0.89 0.89 0.91 1.04 1.14 1.25 1.36 1.52 1.78 2.05 2.18 2.34 2.43 2.59 2.63 2.56 2.50 2.52 2.66 2.81 2.93 3.00 2.93 2.88 2.72
1.56 1.61 1.88 2.26 1.97 1.92 2.04 1.76 1.51 1.44 1.43 1.46 1.44 1.40 1.27 1.18 1.11 1.03 0.98 0.92 0.89 0.90 1.01 1.14 1.28 1.45 1.60 1.76 1.95 2.06 2.24 2.40 2.55 2.56 2.45 2.42 2.38 2.45 2.49 2.49 2.44 2.30 2.20 2.04

GEFSCGP_prec_meanprecacc_306.txt.gz
Total_Precipitation_Accumulation
0.02 0.02 0.04 0.06 0.08 0.12 0.18 0.24 0.35 0.39 0.27 0.31 0.49 0.68 0.90 1.05 1.20 1.25 1.38 1.37 1.56 1.83 1.99 2.39 2.77 3.23 3.68 4.20 4.96 5.66 6.25 6.34 6.21 5.84 5.47 5.24 4.79 4.48 4.21 3.95 3.79 3.52 3.24 3.11
0.02 0.04 0.04 0.06 0.07 0.08 0.15 0.23 0.38 0.40 0.28 0.33 0.52 0.75 1.04 1.10 1.07 1.07 1.28 1.36 1.43 1.63 1.93 2.30 2.85 3.17 3.53 4.06 4.64 5.06 5.15 4.92 4.85 4.90 4.80 4.55 4.56 4.40 4.34 4.17 4.02 3.49 3.28 3.16
0.05 0.06 0.04 0.05 0.08 0.09 0.14 0.21 0.28 0.33 0.35 0.43 0.62 1.00 1.28 1.27 1.06 0.97 1.00 1.10 1.21 1.34 1.55 1.91 2.51 2.85 3.04 3.55 3.90 3.92 3.86 3.80 3.95 4.02 3.97 4.02 4.28 4.35 4.43 4.38 4.13 3.69 3.47 3.31
0.03 0.04 0.05 0.06 0.09 0.10 0.15 0.16 0.19 0.23 0.36 0.66 0.76 1.28 1.59 1.66 1.44 1.14 1.01 1.11 1.18 1.27 1.32 1.63 1.98 2.23 2.52 2.80 2.94 2.93 3.00 3.14 3.27 3.36 3.38 3.26 3.29 3.57 3.84 4.07 4.15 4.01 3.74 3.50
0.04 0.05 0.06 0.07 0.09 0.10 0.12 0.12 0.17 0.25 0.36 0.56 0.68 1.00 1.55 1.85 1.83 1.43 1.14 1.05 1.00 1.15 1.36 1.55 1.68 1.87 1.98 2.05 2.18 2.24 2.52 2.93 3.14 3.26 3.40 3.30 2.98 2.99 3.07 3.23 3.42 3.42 3.43 3.25
0.05 0.06 0.06 0.06 0.07 0.10 0.11 0.17 0.26 0.40 0.60 0.91 0.81 0.90 1.43 1.67 1.72 1.34 1.12 1.03 0.94 0.92 1.07 1.28 1.57 1.69 1.67 1.64 1.79 2.01 2.33 2.84 3.14 3.27 3.21 3.18 3.10 3.08 3.01 3.00 3.09 2.99 2.97 2.91
0.16 0.14 0.10 0.07 0.08 0.11 0.13 0.24 0.64 1.09 1.43 1.49 0.91 0.88 1.13 1.20 1.09 1.08 0.94 0.90 0.96 0.89 0.85 0.84 1.05 1.32 1.31 1.27 1.45 1.71 1.92 2.34 2.64 2.85 2.81 2.74 2.87 2.95 2.80 2.65 2.61 2.57 2.43 2.38
0.19 0.23 0.14 0.10 0.09 0.10 0.13 0.19 0.49 0.83 1.03 1.16 1.03 1.36 1.43 1.06 0.88 0.79 0.68 0.71 0.81 0.73 0.65 0.62 0.68 0.87 1.11 1.14 1.23 1.36 1.59 1.88 2.14 2.32 2.45 2.55 2.73 2.81 2.71 2.85 2.61 2.48 2.16 2.03
0.08 0.11 0.10 0.10 0.10 0.12 0.15 0.16 0.24 0.37 0.54 0.87 1.16 1.37 1.31 1.08 1.01 0.81 0.65 0.60 0.60 0.57 0.54 0.55 0.61 0.82 0.89 0.93 1.02 1.17 1.37 1.57 1.80 2.03 2.25 2.33 2.31 2.31 2.45 2.59 2.53 2.37 2.29 2.05
0.05 0.06 0.08 0.10 0.11 0.13 0.15 0.16 0.20 0.30 0.50 0.73 1.05 1.46 1.56 1.37 1.16 0.98 0.89 0.69 0.58 0.59 0.59 0.56 0.57 0.67 0.73 0.79 0.90 1.10 1.30 1.33 1.57 1.96 2.24 2.21 2.27 2.19 2.33 2.29 2.25 2.30 2.22 2.16
0.04 0.05 0.08 0.11 0.14 0.17 0.19 0.17 0.18 0.24 0.27 0.44 0.92 1.22 1.12 1.12 1.05 0.98 0.86 0.76 0.70 0.67 0.65 0.62 0.61 0.61 0.74 0.67 0.75 0.92 1.07 1.23 1.54 1.90 2.23 2.37 2.30 2.26 2.31 2.14 2.08 2.19 2.19 2.16
0.05 0.05 0.08 0.14 0.19 0.19 0.19 0.19 0.20 0.27 0.27 0.30 0.50 0.82 0.67 0.76 0.87 0.89 0.74 0.68 0.64 0.55 0.53 0.50 0.48 0.54 0.54 0.55 0.65 0.96 1.29 1.65 1.85 2.18 2.53 2.69 2.48 2.26 2.12 1.94 1.90 2.02 2.19 2.23
0.05 0.06 0.15 0.33 0.36 0.26 0.20 0.17 0.18 0.20 0.21 0.26 0.51 0.77 0.62 0.68 0.82 0.80 0.73 0.67 0.65 0.66 0.54 0.52 0.48 0.56 0.57 0.56 0.58 0.72 0.90 1.29 1.64 1.99 2.36 2.42 2.19 1.98 1.95 1.92 1.93 2.03 2.19 2.22
0.06 0.06 0.10 0.28 0.35 0.34 0.28 0.22 0.19 0.17 0.20 0.26 0.36 0.63 0.64 0.69 0.67 0.72 0.66 0.63 0.71 0.80 0.67 0.60 0.58 0.57 0.58 0.59 0.57 0.67 0.78 0.87 1.13 1.60 1.93 1.93 1.78 1.74 1.79 1.81 1.84 1.84 1.94 2.00
0.07 0.07 0.05 0.08 0.16 0.24 0.26 0.23 0.20 0.17 0.16 0.28 0.32 0.43 0.54 0.71 0.70 0.71 0.69 0.63 0.60 0.71 0.68 0.63 0.62 0.69 0.71 0.77 0.78 0.78 0.81 0.84 1.03 1.54 1.78 1.76 1.68 1.72 1.70 1.68 1.79 1.85 1.89 1.92
0.10 0.11 0.10 0.11 0.15 0.17 0.18 0.21 0.19 0.14 0.13 0.12 0.19 0.35 0.41 0.67 0.83 0.81 0.81 0.77 0.71 0.70 0.66 0.63 0.56 0.65 0.77 0.84 0.87 0.88 0.93 0.99 1.13 1.47 1.73 1.72 1.63 1.61 1.55 1.62 1.75 1.87 1.95 2.12
0.16 0.15 0.15 0.16 0.20 0.18 0.25 0.21 0.18 0.16 0.16 0.16 0.26 0.40 0.42 0.52 0.69 0.80 0.81 0.77 0.70 0.71 0.64 0.64 0.68 0.75 0.95 0.90 0.94 1.01 0.94 1.00 1.18 1.51 1.74 1.78 1.70 1.66 1.63 1.59 1.77 1.97 2.18 2.36
0.29 0.27 0.26 0.22 0.26 0.37 0.29 0.22 0.23 0.26 0.30 0.31 0.34 0.38 0.42 0.56 0.64 0.77 0.94 0.80 0.66 0.69 0.72 0.80 0.78 0.83 0.92 0.92 0.98 1.05 1.06 1.09 1.24 1.49 1.72 1.81 1.79 1.83 1.93 1.94 2.01 2.20 2.44 2.60
0.34 0.39 0.36 0.31 0.36 0.42 0.39 0.31 0.35 0.40 0.46 0.48 0.50 0.44 0.50 0.58 0.70 0.86 0.81 0.79 0.83 0.84 0.84 0.89 0.98 1.02 1.10 1.10 1.06 1.13 1.29 1.33 1.38 1.45 1.69 1.85 1.92 2.02 2.05 2.11 2.37 2.57 2.74 2.77
0.37 0.46 0.50 0.45 0.54 0.61 0.60 0.44 0.38 0.47 0.80 0.63 0.65 0.63 0.57 0.62 0.90 1.04 0.87 0.78 0.77 0.89 0.99 0.99 1.06 1.12 1.15 1.19 1.26 1.33 1.46 1.61 1.73 1.82 1.97 2.22 2.41 2.57 2.65 2.72 2.77 2.84 2.95 2.90
0.66 0.63 0.62 0.67 0.79 0.74 0.58 0.51 0.46 0.87 1.21 0.89 0.86 0.84 0.74 0.86 0.98 0.98 0.85 0.79 0.76 0.79 0.94 1.03 1.06 1.16 1.25 1.26 1.42 1.69 1.83 1.91 2.07 2.23 2.31 2.56 2.93 3.14 3.09 3.11 3.00 2.92 2.92 2.94
0.89 0.85 0.85 0.90 1.14 1.22 0.68 0.62 0.97 1.23 1.04 1.05 1.07 1.04 0.97 0.95 1.00 1.02 0.99 0.85 0.80 0.82 0.88 1.00 1.08 1.17 1.36 1.61 1.81 2.10 2.27 2.33 2.40 2.55 2.78 3.05 3.29 3.12 3.02 3.18 3.07 3.07 3.13 3.11
0.98 1.02 1.09 1.18 1.39 1.19 0.84 0.95 1.13 1.12 1.10 1.13 1.11 1.06 0.96 0.92 1.07 1.03 0.98 0.96 0.85 0.83 0.88 0.97 1.07 1.25 1.45 1.76 2.16 2.41 2.50 2.71 2.72 2.76 2.92 3.04 3.11 3.22 3.35 3.41 3.28 3.20 3.19 3.12
1.20 1.07 1.25 1.47 1.54 1.30 1.14 1.12 1.08 1.11 1.13 1.10 1.03 0.98 0.99 0.96 0.98 0.99 0.94 0.92 0.87 0.88 0.97 1.02 1.12 1.33 1.64 1.94 2.29 2.45 2.51 2.57 2.60 2.64 2.66 2.77 2.95 3.08 3.20 3.41 3.41 3.27 3.10 2.99
1.42 1.32 1.57 1.97 2.04 1.89 1.74 1.49 1.31 1.26 1.19 1.22 1.18 1.10 1.07 1.03 0.97 0.92 0.92 0.91 0.92 0.93 1.05 1.15 1.26 1.37 1.53 1.79 2.06 2.19 2.37 2.49 2.66 2.71 2.63 2.56 2.60 2.72 2.87 2.98 3.07 2.99 2.95 2.80
1.59 1.63 1.89 2.26 2.00 1.97 2.12 1.85 1.61 1.54 1.53 1.53 1.48 1.42 1.29 1.20 1.14 1.05 1.00 0.93 0.91 0.91 1.02 1.15 1.29 1.46 1.62 1.78 1.97 2.07 2.27 2.44 2.61 2.63 2.53 2.49 2.46 2.53 2.58 2.59 2.55 2.41 2.30 2.14